Nickajack Lake Weather Center

Moon Phase Calendar



Nickajack Lake Water Level
Online Cameras

 


      

Current Conditions in Ketner Mill
6/25/2022 11:35:34 AM

82°F
Feels Like 90
Clouds
Humidity
87%
Pressure
30.09"
Wind
5.8 mph (SSE)
Dew Point
77°F
UV Index
10/10 (Very High)
Visibility
6 mi

Hourly Forecast

Date & Time Sat, Jun 25
11:00 AM
Sat, Jun 25
12:00 PM
Sat, Jun 25
1:00 PM
Sat, Jun 25
2:00 PM
Sat, Jun 25
3:00 PM
Sat, Jun 25
4:00 PM
Sat, Jun 25
5:00 PM
Sat, Jun 25
6:00 PM
Sat, Jun 25
7:00 PM
Sat, Jun 25
8:00 PM
Sat, Jun 25
9:00 PM
Sat, Jun 25
10:00 PM
Sat, Jun 25
11:00 PM
Sun, Jun 26
12:00 AM
Sun, Jun 26
1:00 AM
Sun, Jun 26
2:00 AM
Sun, Jun 26
3:00 AM
Sun, Jun 26
4:00 AM
Sun, Jun 26
5:00 AM
Sun, Jun 26
6:00 AM
Sun, Jun 26
7:00 AM
Sun, Jun 26
8:00 AM
Sun, Jun 26
9:00 AM
Sun, Jun 26
10:00 AM
Sun, Jun 26
11:00 AM
Sun, Jun 26
12:00 PM
Sun, Jun 26
1:00 PM
Sun, Jun 26
2:00 PM
Sun, Jun 26
3:00 PM
Sun, Jun 26
4:00 PM
Sun, Jun 26
5:00 PM
Sun, Jun 26
6:00 PM
Sun, Jun 26
7:00 PM
Sun, Jun 26
8:00 PM
Sun, Jun 26
9:00 PM
Sun, Jun 26
10:00 PM
Sun, Jun 26
11:00 PM
Mon, Jun 27
12:00 AM
Mon, Jun 27
1:00 AM
Mon, Jun 27
2:00 AM
Mon, Jun 27
3:00 AM
Mon, Jun 27
4:00 AM
Mon, Jun 27
5:00 AM
Mon, Jun 27
6:00 AM
Mon, Jun 27
7:00 AM
Mon, Jun 27
8:00 AM
Mon, Jun 27
9:00 AM
Mon, Jun 27
10:00 AM
Condition
Clouds

Clouds

Clouds

Rain

Rain

Rain

Rain

Rain

Rain

Clouds

Clouds

Clouds

Clouds

Clouds

Rain

Rain

Clear

Clear

Clear

Clear

Clear

Clear

Clear

Clear

Clear

Clear

Clouds

Clouds

Clouds

Rain

Rain

Rain

Rain

Rain

Rain

Clouds

Rain

Clouds

Clouds

Rain

Clouds

Clouds

Clouds

Clouds

Clouds

Clouds

Clouds

Clouds
Temperature 81°F82°F82°F82°F84°F82°F81°F82°F78°F75°F74°F73°F72°F72°F71°F71°F71°F70°F70°F70°F73°F76°F79°F83°F87°F90°F92°F90°F86°F84°F84°F77°F72°F72°F72°F72°F71°F71°F70°F70°F70°F69°F68°F68°F70°F72°F74°F76°F
Feels Like 87°F90°F89°F90°F91°F91°F88°F88°F80°F76°F75°F74°F74°F73°F72°F72°F72°F71°F71°F71°F74°F77°F79°F86°F90°F94°F97°F93°F91°F89°F89°F78°F74°F74°F73°F73°F72°F72°F72°F71°F71°F70°F69°F69°F71°F73°F75°F77°F
Cloudiness 89%89%88%69%73%78%80%72%68%78%49%51%43%34%29%1%1%3%4%5%5%8%7%7%6%6%12%92%95%97%84%87%89%100%100%100%100%100%100%100%100%100%100%100%100%100%100%100%
Visibility 6 mi6 mi5 mi6 mi6 mi6 mi6 mi6 mi6 mi6 mi6 mi6 mi6 mi6 mi6 mi6 mi6 mi6 mi6 mi6 mi6 mi6 mi6 mi6 mi6 mi6 mi6 mi6 mi6 mi6 mi6 mi6 mi2 mi6 mi6 mi6 mi6 mi6 mi6 mi6 mi6 mi6 mi6 mi6 mi6 mi6 mi6 mi6 mi
Precipitation 79%79%79%79%79%82%82%83%86%27%35%30%30%26%29%20%14%13%13%9%9%0%0%0%0%0%0%18%25%46%63%75%84%95%95%76%100%80%80%62%55%51%43%35%31%5%5%4%
Humidity 85%87%84%82%75%83%85%78%87%89%90%91%92%93%94%95%96%96%96%97%94%84%69%60%53%49%45%47%62%67%66%88%99%98%98%98%97%97%97%98%98%98%97%97%96%94%88%82%
Dew Point 76°F77°F77°F76°F75°F77°F75°F73°F73°F70°F69°F69°F69°F68°F68°F68°F68°F68°F67°F68°F70°F69°F67°F67°F67°F67°F67°F66°F70°F70°F69°F72°F71°F70°F70°F70°F69°F69°F68°F68°F68°F67°F66°F66°F67°F68°F69°F69°F
Pressure 30.09"30.09"30.09"30.09"30.06"30.03"30.03"30"30.03"30.03"30.06"30.06"30.06"30.06"30.06"30.06"30.06"30.09"30.09"30.09"30.12"30.12"30.12"30.12"30.12"30.09"30.06"30.06"30.03"30.03"30.03"30.03"30.06"30.09"30.09"30.12"30.12"30.12"30.12"30.12"30.09"30.09"30.09"30.09"30.12"30.12"30.12"30.15"
Wind Speed 4.8 mph5.8 mph7.1 mph6.3 mph5.7 mph4.8 mph3.7 mph1.4 mph1.6 mph1.7 mph1.7 mph1.7 mph2.7 mph2.1 mph1.4 mph1.7 mph1.9 mph1.3 mph1.8 mph2.4 mph2.5 mph3.9 mph3.6 mph4 mph4 mph4.1 mph3.7 mph4.2 mph5 mph5 mph2.2 mph4.9 mph4.1 mph2.2 mph1.3 mph0.9 mph1.2 mph2.7 mph1.8 mph2.2 mph2.8 mph2.7 mph3.1 mph3.1 mph2.8 mph3.2 mph4.1 mph5.1 mph
Wind
Direction
132°
SE
151°
SSE
164°
SSE
177°
S
197°
SSW
210°
SSW
202°
SSW
198°
SSW
55°
NE
70°
ENE
84°
E
135°
SE
85°
E
115°
ESE
113°
ESE
75°
ENE
59°
ENE
106°
ESE
79°
E
94°
E
108°
ESE
117°
ESE
123°
ESE
146°
SE
170°
S
184°
S
198°
SSW
190°
S
194°
SSW
202°
SSW
271°
W
19°
NNE
73°
ENE
24°
NNE
182°
S
48°
NE
293°
WNW

N
352°
N
335°
NNW

N
340°
NNW
335°
NNW
348°
NNW
347°
NNW

N
26°
NNE
25°
NNE

Daily Forecast

Date High Low Precip. Humidity
Today
Jun 25

Rain
84 °F
69 °F
99%
87%
Sunday
Jun 26

Rain
92 °F
70 °F
100%
49%
Monday
Jun 27

Rain
84 °F
68 °F
80%
61%
Tuesday
Jun 28

Rain
87 °F
62 °F
90%
52%
Wednesday
Jun 29

Rain
87 °F
68 °F
85%
71%
Thursday
Jun 30

Rain
90 °F
68 °F
40%
47%
Friday
Jul 1

Rain
91 °F
70 °F
89%
49%
Saturday
Jul 2

Rain
92 °F
70 °F
98%
42%
Sunday
Jul 3

Rain
83 °F
71 °F
99%
79%
Monday
Jul 4

Rain
83 °F
72 °F
100%
81%
Tuesday
Jul 5

Rain
89 °F
70 °F
73%
60%
Wednesday
Jul 6

Clouds
95 °F
75 °F
20%
46%
Thursday
Jul 7

Rain
98 °F
75 °F
62%
37%
Friday
Jul 8

Rain
94 °F
72 °F
90%
46%
Saturday
Jul 9

Rain
95 °F
72 °F
85%
43%
Sunday
Jul 10

Rain
92 °F
73 °F
100%
53%

Temperature 8-14 Day Outlook



Precipitation 8-14 Day Outlook




Quick Links
Nickajack Lake News
Nickajack Lake Photos
Nickajack Lake Videos




About Us
Contact Us
Site Map
Search Site
Advertise With Us
   
Nickajack.USLakes.info
THE NICKAJACK LAKE WEBSITE

Copyright 2022, Lakes Online
Privacy    |    Legal